User: anonymous   Login
Location: Mentone
(34.5413°N, 85.5351°W)
Time: 15:34:12
(UTC-05:00)
Language:

ADEOS Rocket - Orbit

View from above orbital plane
View from above orbital plane
View from above satellite
View from above satellite

Ground track
Ground track

The orbit data is extracted from the following two-line orbital elements,

1 24279U 96046C   16274.93181072 +.00000003 +00000-0 +50683-4 0  9999
2 24279 098.7146 245.3972 0299200 229.6713 137.6332 13.47058544989074
Epoch (UTC): 30 September 2016 22:21:48
Eccentricity: 0.0299200
inclination: 98.7146°
perigee height: 860 km
apogee height: 1306 km
right ascension of ascending node: 245.3972°
argument of perigee: 229.6713°
revolutions per day: 13.47058544
mean anomaly at epoch: 137.6332°
orbit number at epoch: 98907

The dashed part of the orbit path shows where the satellite is in the earth's shadow,  

DLR